TimeEST,TemperatureF,Dew PointF,Humidity,Sea Level PressureIn,VisibilityMPH,Wind Direction,Wind SpeedMPH,Gust SpeedMPH,PrecipitationIn,Events,Conditions,WindDirDegrees,DateUTC
12:19 AM,71.6,69.8,94,30.19,10.0,East,12.7,-,0.00,,Overcast,80,2014-01-09 05:19:00
12:35 AM,71.6,69.8,94,30.19,10.0,East,10.4,-,0.00,,Overcast,80,2014-01-09 05:35:00
12:53 AM,72.0,69.1,91,30.18,10.0,East,15.0,-,0.00,,Overcast,80,2014-01-09 05:53:00
1:53 AM,72.0,70.0,93,30.17,9.0,East,11.5,-,0.00,Rain,Light Rain,80,2014-01-09 06:53:00
2:53 AM,71.1,70.0,96,30.17,6.0,East,10.4,-,0.00,Rain,Light Rain,80,2014-01-09 07:53:00
3:23 AM,71.6,69.8,94,30.16,10.0,East,10.4,-,0.01,,Overcast,80,2014-01-09 08:23:00
3:53 AM,71.1,70.0,96,30.16,5.0,East,9.2,-,0.01,Rain,Light Rain,80,2014-01-09 08:53:00
4:02 AM,71.6,69.8,94,30.15,10.0,East,10.4,-,0.00,,Overcast,80,2014-01-09 09:02:00
4:44 AM,71.6,69.8,94,30.17,10.0,East,8.1,-,0.00,,Overcast,80,2014-01-09 09:44:00
4:53 AM,72.0,70.0,93,30.17,10.0,East,8.1,-,0.00,,Overcast,90,2014-01-09 09:53:00
5:05 AM,71.6,69.8,94,30.17,6.0,East,9.2,-,0.01,Rain,Light Rain,90,2014-01-09 10:05:00
5:19 AM,71.6,69.8,94,30.16,10.0,ENE,8.1,-,0.01,Rain,Light Rain,70,2014-01-09 10:19:00
5:50 AM,71.6,69.8,94,30.16,10.0,East,9.2,-,0.01,,Mostly Cloudy,80,2014-01-09 10:50:00
5:53 AM,72.0,70.0,93,30.16,10.0,East,9.2,-,0.01,,Mostly Cloudy,90,2014-01-09 10:53:00
6:16 AM,71.6,69.8,94,30.16,10.0,East,11.5,-,N/A,,Mostly Cloudy,80,2014-01-09 11:16:00
6:53 AM,71.1,71.1,100,30.17,10.0,ENE,8.1,-,N/A,,Mostly Cloudy,70,2014-01-09 11:53:00
7:07 AM,71.6,71.6,100,30.17,10.0,ENE,9.2,-,N/A,,Mostly Cloudy,70,2014-01-09 12:07:00
7:53 AM,73.0,71.1,93,30.19,10.0,East,6.9,-,N/A,,Partly Cloudy,90,2014-01-09 12:53:00
8:10 AM,73.4,71.6,94,30.20,10.0,East,8.1,-,N/A,,Mostly Cloudy,80,2014-01-09 13:10:00
8:18 AM,73.4,71.6,94,30.20,10.0,East,8.1,-,N/A,,Mostly Cloudy,90,2014-01-09 13:18:00
8:53 AM,73.9,72.0,93,30.20,10.0,East,10.4,-,N/A,,Partly Cloudy,90,2014-01-09 13:53:00
9:53 AM,75.9,73.0,91,30.23,10.0,East,9.2,-,N/A,,Partly Cloudy,100,2014-01-09 14:53:00
10:50 AM,77.0,73.4,89,30.22,10.0,East,10.4,-,N/A,,Mostly Cloudy,90,2014-01-09 15:50:00
10:53 AM,77.0,73.0,88,30.22,10.0,East,10.4,-,N/A,,Mostly Cloudy,100,2014-01-09 15:53:00
11:53 AM,78.1,73.0,84,30.20,10.0,ESE,12.7,-,0.01,,Mostly Cloudy,110,2014-01-09 16:53:00
12:41 PM,78.8,73.4,83,30.18,10.0,ESE,12.7,-,0.00,Rain,Light Rain,110,2014-01-09 17:41:00
12:53 PM,75.9,72.0,87,30.17,10.0,ESE,13.8,-,0.00,Rain,Light Rain,110,2014-01-09 17:53:00
1:32 PM,78.8,73.4,83,30.15,10.0,East,12.7,-,0.00,,Mostly Cloudy,90,2014-01-09 18:32:00
1:43 PM,78.8,73.4,83,30.14,10.0,ESE,13.8,-,0.00,,Mostly Cloudy,110,2014-01-09 18:43:00
1:53 PM,78.1,73.0,84,30.14,10.0,East,13.8,-,0.00,,Mostly Cloudy,90,2014-01-09 18:53:00
2:36 PM,78.8,73.4,83,30.14,10.0,East,9.2,-,N/A,,Partly Cloudy,100,2014-01-09 19:36:00
2:53 PM,78.1,73.0,84,30.13,10.0,East,9.2,-,N/A,,Overcast,100,2014-01-09 19:53:00
3:53 PM,77.0,73.0,88,30.13,10.0,SE,9.2,-,N/A,,Mostly Cloudy,130,2014-01-09 20:53:00
4:38 PM,77.0,71.6,83,30.12,10.0,ESE,9.2,-,N/A,,Mostly Cloudy,110,2014-01-09 21:38:00
4:53 PM,77.0,72.0,84,30.13,10.0,ESE,5.8,-,N/A,,Mostly Cloudy,110,2014-01-09 21:53:00
6:53 PM,73.0,72.0,96,30.14,10.0,East,4.6,-,N/A,,Mostly Cloudy,90,2014-01-09 23:53:00
7:00 PM,73.4,71.6,94,30.15,10.0,East,4.6,-,N/A,,Clear,90,2014-01-10 00:00:00
7:53 PM,72.0,71.1,97,30.17,10.0,East,4.6,-,N/A,,Clear,90,2014-01-10 00:53:00
8:53 PM,71.1,71.1,100,30.19,10.0,Calm,Calm,-,N/A,,Partly Cloudy,0,2014-01-10 01:53:00
9:53 PM,71.1,70.0,96,30.19,10.0,NE,3.5,-,N/A,,Partly Cloudy,50,2014-01-10 02:53:00
10:19 PM,71.6,71.6,100,30.19,10.0,ENE,3.5,-,N/A,,Mostly Cloudy,70,2014-01-10 03:19:00
10:29 PM,71.6,71.6,100,30.18,10.0,East,4.6,-,N/A,,Scattered Clouds,100,2014-01-10 03:29:00
10:53 PM,73.9,72.0,93,30.18,10.0,ESE,6.9,-,N/A,,Scattered Clouds,120,2014-01-10 03:53:00
11:53 PM,73.9,72.0,93,30.17,10.0,East,5.8,-,N/A,,Partly Cloudy,100,2014-01-10 04:53:00